{"data":{"norad_id":58589,"epoch":"2026-09-20T09:10:46.086240Z","epoch_age_seconds":160011,"freshness":"FRESH","line1":"1 58589U 23200A   26263.38247785 -.00000404  00000+0 -51801-5 0  9994","line2":"2 58589  43.0005 149.5640 0001108 258.9180 101.1548 15.27576600153380","mean_motion":15.275766,"eccentricity":0.0001108,"inclination_deg":43.0005,"raan_deg":149.564,"arg_perigee_deg":258.918,"mean_anomaly_deg":101.1548,"bstar":-5.1801e-6,"rev_number":15338,"period_min":94.266958527644,"perigee_km":482.2990563342,"apogee_km":483.81949742916,"semimajor_km":6861.1962768817,"source":"CELESTRAK","updated_at":"2026-09-21T09:00:33.916781Z"}}